| time (UTC) | temp C | wind direction | speed KPH | gust KPH | rain 1hr cm | rain 24hr cm | rain mn cm | humidity % | barometer mb |
| 20260509000728 | 8 | 0 | 6.4 | 12.9 | 0.00 | 0.00 | 0.00 | 65 | 1013.2 |
| 20260508235709 | 7 | 338 | 6.4 | 9.7 | 0.00 | 0.00 | 0.00 | 68 | 1013.1 |
| 20260508235158 | 7 | 338 | 4.8 | 6.4 | 0.00 | 0.00 | 0.00 | 68 | 1013.2 |
| 20260508234648 | 7 | 338 | 4.8 | 9.7 | 0.00 | 0.00 | 0.00 | 65 | 1013.1 |
| 20260508234138 | 7 | 338 | 4.8 | 9.7 | 0.00 | 0.00 | 0.00 | 64 | 1012.8 |
| 20260508233627 | 8 | 338 | 6.4 | 9.7 | 0.00 | 0.00 | 0.00 | 57 | 1012.7 |
| 20260508233117 | 10 | 338 | 3.2 | 6.4 | 0.00 | 0.00 | 0.00 | 53 | 1012.6 |
| 20260508232607 | 10 | 338 | 0.0 | 0.0 | 0.00 | 0.00 | 0.00 | 53 | 1012.7 |
| 20260508232057 | 9 | 315 | 0.0 | 0.0 | 0.00 | 0.00 | 0.00 | 55 | 1012.4 |
| 20260508231547 | 9 | 315 | 0.0 | 0.0 | 0.00 | 0.00 | 0.00 | 56 | 1012.5 |
| 20260508231037 | 8 | 315 | 0.0 | 0.0 | 0.00 | 0.00 | 0.00 | 57 | 1012.5 |
| 20260508230527 | 8 | 338 | 0.0 | 0.0 | 0.00 | 0.00 | 0.00 | 56 | 1012.6 |
| 20260508230018 | 10 | 293 | 0.0 | 0.0 | 0.00 | 0.00 | 0.00 | 53 | 1012.5 |
| 20260508225507 | 10 | 270 | 0.0 | 0.0 | 0.00 | 0.00 | 0.00 | 52 | 1012.5 |
| 20260508224957 | 10 | 270 | 0.0 | 0.0 | 0.00 | 0.00 | 0.00 | 51 | 1012.6 |
| 20260508224447 | 10 | 270 | 0.0 | 0.0 | 0.00 | 0.00 | 0.00 | 51 | 1012.3 |
| 20260508223936 | 10 | 270 | 0.0 | 0.0 | 0.00 | 0.00 | 0.00 | 51 | 1012.8 |
| 20260508223426 | 10 | 270 | 0.0 | 0.0 | 0.00 | 0.00 | 0.00 | 51 | 1012.5 |
| 20260508222916 | 10 | 270 | 0.0 | 3.2 | 0.00 | 0.00 | 0.00 | 51 | 1012.6 |
| 20260508222405 | 10 | 270 | 0.0 | 6.4 | 0.00 | 0.00 | 0.00 | 50 | 1012.5 |
| 20260508221856 | 10 | 270 | 1.6 | 6.4 | 0.00 | 0.00 | 0.00 | 50 | 1012.8 |
| 20260508221346 | 10 | 270 | 3.2 | 6.4 | 0.00 | 0.00 | 0.00 | 48 | 1012.7 |
| 20260508220836 | 11 | 248 | 3.2 | 6.4 | 0.00 | 0.00 | 0.00 | 47 | 1012.4 |
| 20260508220325 | 11 | 248 | 3.2 | 6.4 | 0.00 | 0.00 | 0.00 | 45 | 1012.3 |
| 20260508215815 | 11 | 248 | 3.2 | 6.4 | 0.00 | 0.00 | 0.00 | 46 | 1012.3 |
| 20260508215307 | 11 | 270 | 3.2 | 6.4 | 0.00 | 0.00 | 0.00 | 45 | 1012.4 |
| 20260508214755 | 11 | 270 | 3.2 | 6.4 | 0.00 | 0.00 | 0.00 | 45 | 1012.4 |
| 20260508214245 | 11 | 270 | 4.8 | 6.4 | 0.00 | 0.00 | 0.00 | 44 | 1012.2 |
| 20260508213735 | 12 | 248 | 4.8 | 6.4 | 0.00 | 0.00 | 0.00 | 44 | 1012.4 |
| 20260508212715 | 12 | 270 | 4.8 | 9.7 | 0.00 | 0.00 | 0.00 | 42 | 1012.4 |
| 20260508212204 | 12 | 270 | 6.4 | 9.7 | 0.00 | 0.00 | 0.00 | 40 | 1012.1 |
| 20260508211654 | 12 | 248 | 4.8 | 11.3 | 0.00 | 0.00 | 0.00 | 39 | 1012.1 |
| 20260508211145 | 13 | 248 | 6.4 | 12.9 | 0.00 | 0.00 | 0.00 | 37 | 1012.1 |
| 20260508210634 | 13 | 248 | 6.4 | 14.5 | 0.00 | 0.00 | 0.00 | 36 | 1011.9 |
| 20260508210125 | 14 | 248 | 11.3 | 17.7 | 0.00 | 0.00 | 0.00 | 35 | 1012.0 |
| 20260508205614 | 14 | 248 | 12.9 | 20.9 | 0.00 | 0.00 | 0.00 | 34 | 1012.3 |
| 20260508205104 | 15 | 248 | 12.9 | 20.9 | 0.00 | 0.00 | 0.00 | 34 | 1012.1 |
| 20260508204554 | 15 | 248 | 12.9 | 20.9 | 0.00 | 0.00 | 0.00 | 33 | 1011.9 |
| 20260508204043 | 15 | 248 | 14.5 | 25.7 | 0.00 | 0.00 | 0.00 | 32 | 1011.9 |
| 20260508203533 | 15 | 248 | 16.1 | 25.7 | 0.00 | 0.00 | 0.00 | 31 | 1012.0 |
| 20260508203023 | 15 | 248 | 16.1 | 32.2 | 0.00 | 0.00 | 0.00 | 30 | 1012.0 |
| 20260508202003 | 15 | 248 | 20.9 | 32.2 | 0.00 | 0.00 | 0.00 | 30 | 1011.9 |
| 20260508200433 | 16 | 270 | 19.3 | 35.4 | 0.00 | 0.00 | 0.00 | 29 | 1011.6 |
| 20260508195924 | 15 | 225 | 27.4 | 35.4 | 0.00 | 0.00 | 0.00 | 28 | 1011.5 |
| 20260508195413 | 16 | 270 | 25.7 | 33.8 | 0.00 | 0.00 | 0.00 | 28 | 1011.7 |
| 20260508194902 | 16 | 248 | 22.5 | 32.2 | 0.00 | 0.00 | 0.00 | 28 | 1011.7 |
| 20260508194354 | 16 | 225 | 22.5 | 35.4 | 0.00 | 0.00 | 0.00 | 28 | 1011.7 |
| 20260508193842 | 16 | 248 | 19.3 | 35.4 | 0.00 | 0.00 | 0.00 | 28 | 1011.8 |
| 20260508193333 | 16 | 248 | 25.7 | 35.4 | 0.00 | 0.00 | 0.00 | 26 | 1011.9 |
| 20260508192822 | 16 | 248 | 24.1 | 32.2 | 0.00 | 0.00 | 0.00 | 28 | 1012.0 |
| 20260508191801 | 16 | 248 | 17.7 | 38.6 | 0.00 | 0.00 | 0.00 | 30 | 1011.8 |
| 20260508191252 | 16 | 270 | 20.9 | 38.6 | 0.00 | 0.00 | 0.00 | 29 | 1012.1 |
| 20260508190742 | 16 | 248 | 22.5 | 35.4 | 0.00 | 0.00 | 0.00 | 29 | 1012.3 |
| 20260508190233 | 16 | 248 | 24.1 | 35.4 | 0.00 | 0.00 | 0.00 | 29 | 1012.3 |
| 20260508185722 | 16 | 270 | 22.5 | 40.2 | 0.00 | 0.00 | 0.00 | 29 | 1012.0 |
| 20260508185211 | 16 | 248 | 27.4 | 40.2 | 0.00 | 0.00 | 0.00 | 28 | 1012.3 |
| 20260508184701 | 16 | 248 | 27.4 | 40.2 | 0.00 | 0.00 | 0.00 | 29 | 1012.3 |
| 20260508184150 | 16 | 248 | 27.4 | 33.8 | 0.00 | 0.00 | 0.00 | 29 | 1012.3 |
| 20260508183642 | 15 | 248 | 27.4 | 33.8 | 0.00 | 0.00 | 0.00 | 31 | 1012.3 |
| 20260508183130 | 16 | 248 | 24.1 | 35.4 | 0.00 | 0.00 | 0.00 | 31 | 1012.3 |
| 20260508182621 | 15 | 225 | 22.5 | 38.6 | 0.00 | 0.00 | 0.00 | 32 | 1012.3 |
| 20260508182111 | 15 | 248 | 30.6 | 40.2 | 0.00 | 0.00 | 0.00 | 30 | 1012.2 |
| 20260508181601 | 15 | 248 | 24.1 | 40.2 | 0.00 | 0.00 | 0.00 | 31 | 1012.3 |
| 20260508181050 | 15 | 248 | 29.0 | 37.0 | 0.00 | 0.00 | 0.00 | 31 | 1012.4 |
| 20260508180030 | 15 | 248 | 24.1 | 38.6 | 0.00 | 0.00 | 0.00 | 31 | 1012.6 |
| 20260508175521 | 16 | 248 | 20.9 | 37.0 | 0.00 | 0.00 | 0.00 | 33 | 1012.5 |
| 20260508175010 | 15 | 248 | 19.3 | 38.6 | 0.00 | 0.00 | 0.00 | 33 | 1012.6 |
| 20260508174500 | 15 | 270 | 27.4 | 38.6 | 0.00 | 0.00 | 0.00 | 31 | 1012.6 |
| 20260508173950 | 15 | 248 | 24.1 | 37.0 | 0.00 | 0.00 | 0.00 | 32 | 1012.9 |
| 20260508172929 | 15 | 270 | 24.1 | 38.6 | 0.00 | 0.00 | 0.00 | 32 | 1013.1 |
| 20260508172420 | 15 | 248 | 27.4 | 43.5 | 0.00 | 0.00 | 0.00 | 33 | 1013.3 |
| 20260508171909 | 15 | 248 | 24.1 | 43.5 | 0.00 | 0.00 | 0.00 | 34 | 1013.1 |
| 20260508171359 | 15 | 293 | 22.5 | 37.0 | 0.00 | 0.00 | 0.00 | 34 | 1013.3 |
| 20260508170849 | 15 | 248 | 24.1 | 37.0 | 0.00 | 0.00 | 0.00 | 34 | 1013.5 |
| 20260508170339 | 15 | 270 | 24.1 | 40.2 | 0.00 | 0.00 | 0.00 | 34 | 1013.3 |
| 20260508165828 | 14 | 225 | 24.1 | 40.2 | 0.00 | 0.00 | 0.00 | 33 | 1013.5 |
| 20260508164808 | 15 | 270 | 24.1 | 38.6 | 0.00 | 0.00 | 0.00 | 36 | 1013.7 |
| 20260508163748 | 14 | 248 | 24.1 | 38.6 | 0.00 | 0.00 | 0.00 | 36 | 1013.9 |
| 20260508162728 | 13 | 248 | 17.7 | 43.5 | 0.00 | 0.00 | 0.00 | 38 | 1013.8 |
| 20260508162218 | 14 | 270 | 24.1 | 43.5 | 0.00 | 0.00 | 0.00 | 37 | 1014.1 |
| 20260508161157 | 14 | 270 | 22.5 | 38.6 | 0.00 | 0.00 | 0.00 | 38 | 1013.9 |
| 20260508160647 | 13 | 270 | 27.4 | 38.6 | 0.00 | 0.00 | 0.00 | 37 | 1014.0 |
| 20260508160137 | 14 | 248 | 30.6 | 38.6 | 0.00 | 0.00 | 0.00 | 37 | 1014.0 |
| 20260508155118 | 13 | 248 | 22.5 | 35.4 | 0.00 | 0.00 | 0.00 | 40 | 1014.3 |
| 20260508154057 | 13 | 270 | 20.9 | 43.5 | 0.00 | 0.00 | 0.00 | 40 | 1014.6 |
| 20260508153546 | 13 | 248 | 27.4 | 38.6 | 0.00 | 0.00 | 0.00 | 39 | 1014.6 |
| 20260508153043 | 13 | 225 | 24.1 | 32.2 | 0.00 | 0.00 | 0.00 | 41 | 1014.7 |
| 20260508152016 | 12 | 225 | 25.7 | 40.2 | 0.00 | 0.00 | 0.00 | 39 | 1014.7 |
| 20260508150957 | 13 | 248 | 17.7 | 35.4 | 0.00 | 0.00 | 0.00 | 41 | 1014.9 |
| 20260508150446 | 12 | 270 | 19.3 | 33.8 | 0.00 | 0.00 | 0.00 | 43 | 1015.0 |
| 20260508145936 | 12 | 270 | 24.1 | 33.8 | 0.00 | 0.00 | 0.00 | 43 | 1015.1 |
| 20260508144916 | 12 | 248 | 22.5 | 37.0 | 0.00 | 0.00 | 0.00 | 42 | 1015.3 |
| 20260508144406 | 12 | 248 | 27.4 | 37.0 | 0.00 | 0.00 | 0.00 | 42 | 1015.3 |
| 20260508143856 | 12 | 248 | 19.3 | 37.0 | 0.00 | 0.00 | 0.00 | 43 | 1015.2 |
| 20260508143346 | 12 | 270 | 19.3 | 35.4 | 0.00 | 0.00 | 0.00 | 44 | 1015.3 |
| 20260508142836 | 12 | 248 | 27.4 | 35.4 | 0.00 | 0.00 | 0.00 | 44 | 1015.4 |
| 20260508142325 | 12 | 270 | 20.9 | 38.6 | 0.00 | 0.00 | 0.00 | 44 | 1015.4 |
| 20260508141305 | 11 | 270 | 25.7 | 35.4 | 0.00 | 0.00 | 0.00 | 46 | 1015.4 |
| 20260508140755 | 11 | 225 | 25.7 | 35.4 | 0.00 | 0.00 | 0.00 | 46 | 1015.4 |
| 20260508140245 | 12 | 248 | 19.3 | 37.0 | 0.00 | 0.00 | 0.00 | 46 | 1015.4 |
| 20260508135225 | 11 | 270 | 20.9 | 35.4 | 0.00 | 0.00 | 0.00 | 48 | 1015.4 |
| 20260508134714 | 11 | 248 | 24.1 | 35.4 | 0.00 | 0.00 | 0.00 | 47 | 1015.5 |
| 20260508134204 | 11 | 270 | 25.7 | 35.4 | 0.00 | 0.00 | 0.00 | 48 | 1015.6 |
| 20260508133144 | 11 | 248 | 24.1 | 43.5 | 0.00 | 0.00 | 0.00 | 49 | 1015.6 |
| 20260508132124 | 11 | 248 | 22.5 | 35.4 | 0.00 | 0.00 | 0.00 | 48 | 1015.3 |
| 20260508131104 | 10 | 248 | 25.7 | 37.0 | 0.00 | 0.00 | 0.00 | 50 | 1015.3 |
| 20260508130554 | 10 | 248 | 30.6 | 37.0 | 0.00 | 0.00 | 0.00 | 51 | 1015.5 |
| 20260508130049 | 10 | 270 | 25.7 | 35.4 | 0.00 | 0.00 | 0.00 | 52 | 1015.4 |
| 20260508125534 | 10 | 248 | 24.1 | 33.8 | 0.00 | 0.00 | 0.00 | 53 | 1015.3 |
| 20260508124514 | 10 | 248 | 19.3 | 32.2 | 0.00 | 0.00 | 0.00 | 55 | 1015.3 |
| 20260508124002 | 10 | 270 | 14.5 | 27.4 | 0.00 | 0.00 | 0.00 | 57 | 1015.2 |
| 20260508123453 | 10 | 248 | 16.1 | 32.2 | 0.00 | 0.00 | 0.00 | 57 | 1015.1 |
| 20260508122943 | 10 | 248 | 19.3 | 32.2 | 0.00 | 0.00 | 0.00 | 56 | 1015.1 |
| 20260508122433 | 10 | 248 | 17.7 | 32.2 | 0.00 | 0.00 | 0.00 | 56 | 1015.4 |
| 20260508121923 | 9 | 248 | 19.3 | 32.2 | 0.00 | 0.00 | 0.00 | 56 | 1015.5 |
| 20260508121412 | 9 | 248 | 20.9 | 33.8 | 0.00 | 0.00 | 0.00 | 57 | 1015.1 |
| 20260508120902 | 9 | 248 | 20.9 | 33.8 | 0.00 | 0.00 | 0.00 | 58 | 1015.2 |
| 20260508120352 | 8 | 248 | 16.1 | 29.0 | 0.00 | 0.00 | 0.00 | 60 | 1015.1 |
| 20260508115843 | 8 | 270 | 16.1 | 29.0 | 0.00 | 0.00 | 0.00 | 62 | 1015.1 |
| 20260508115332 | 8 | 270 | 17.7 | 27.4 | 0.00 | 0.00 | 0.00 | 62 | 1015.0 |
| 20260508114822 | 8 | 270 | 19.3 | 27.4 | 0.00 | 0.00 | 0.00 | 62 | 1014.9 |
| 20260508114312 | 8 | 270 | 12.9 | 22.5 | 0.00 | 0.00 | 0.00 | 65 | 1014.9 |
| 20260508113802 | 7 | 270 | 16.1 | 22.5 | 0.00 | 0.00 | 0.00 | 67 | 1014.9 |
| 20260508113252 | 7 | 293 | 14.5 | 22.5 | 0.00 | 0.00 | 0.00 | 68 | 1014.9 |
| 20260508112741 | 7 | 293 | 14.5 | 22.5 | 0.00 | 0.00 | 0.00 | 68 | 1014.9 |
| 20260508111722 | 6 | 293 | 11.3 | 17.7 | 0.00 | 0.00 | 0.00 | 72 | 1014.5 |
| 20260508110701 | 6 | 315 | 9.7 | 14.5 | 0.00 | 0.00 | 0.00 | 72 | 1014.5 |
| 20260508110151 | 6 | 315 | 8.0 | 14.5 | 0.00 | 0.00 | 0.00 | 71 | 1014.6 |
| 20260508105641 | 6 | 293 | 9.7 | 14.5 | 0.00 | 0.00 | 0.00 | 70 | 1014.3 |
| 20260508105130 | 6 | 293 | 9.7 | 14.5 | 0.00 | 0.00 | 0.00 | 73 | 1014.2 |
| 20260508104622 | 6 | 293 | 8.0 | 14.5 | 0.00 | 0.00 | 0.00 | 73 | 1014.1 |
| 20260508104111 | 6 | 293 | 8.0 | 12.9 | 0.00 | 0.00 | 0.00 | 73 | 1014.0 |
| 20260508103601 | 6 | 270 | 8.0 | 17.7 | 0.00 | 0.00 | 0.00 | 71 | 1013.9 |
| 20260508103050 | 6 | 270 | 11.3 | 17.7 | 0.00 | 0.00 | 0.00 | 68 | 1013.7 |
| 20260508102541 | 7 | 248 | 11.3 | 17.7 | 0.00 | 0.00 | 0.00 | 67 | 1013.5 |
| 20260508102030 | 7 | 248 | 12.9 | 25.7 | 0.00 | 0.00 | 0.00 | 65 | 1013.4 |
| 20260508101520 | 7 | 248 | 14.5 | 25.7 | 0.00 | 0.00 | 0.00 | 63 | 1013.2 |
| 20260508101010 | 7 | 248 | 14.5 | 22.5 | 0.00 | 0.00 | 0.00 | 64 | 1013.2 |
| 20260508100500 | 7 | 248 | 14.5 | 20.9 | 0.00 | 0.00 | 0.00 | 64 | 1013.1 |
| 20260508094929 | 7 | 248 | 9.7 | 20.9 | 0.00 | 0.00 | 0.00 | 68 | 1013.0 |
| 20260508094420 | 6 | 248 | 12.9 | 17.7 | 0.00 | 0.00 | 0.00 | 71 | 1013.2 |
| 20260508093910 | 6 | 248 | 12.9 | 17.7 | 0.00 | 0.00 | 0.00 | 71 | 1012.8 |
| 20260508092849 | 6 | 270 | 12.9 | 17.7 | 0.00 | 0.00 | 0.00 | 72 | 1012.7 |
| 20260508092339 | 6 | 270 | 12.9 | 17.7 | 0.00 | 0.00 | 0.00 | 72 | 1012.7 |
| 20260508091829 | 6 | 248 | 9.7 | 17.7 | 0.00 | 0.00 | 0.00 | 73 | 1012.7 |
| 20260508091318 | 6 | 248 | 11.3 | 17.7 | 0.00 | 0.00 | 0.00 | 73 | 1012.3 |
| 20260508090809 | 6 | 248 | 11.3 | 22.5 | 0.00 | 0.00 | 0.00 | 71 | 1012.5 |
| 20260508090258 | 7 | 248 | 12.9 | 22.5 | 0.00 | 0.00 | 0.00 | 70 | 1012.3 |
| 20260508085748 | 7 | 248 | 12.9 | 20.9 | 0.00 | 0.00 | 0.00 | 71 | 1012.3 |
| 20260508085238 | 7 | 248 | 14.5 | 20.9 | 0.00 | 0.00 | 0.00 | 71 | 1012.0 |
| 20260508084728 | 6 | 248 | 9.7 | 20.9 | 0.00 | 0.00 | 0.00 | 72 | 1011.9 |
| 20260508084218 | 7 | 248 | 14.5 | 20.9 | 0.00 | 0.00 | 0.00 | 71 | 1011.8 |
| 20260508083708 | 7 | 248 | 12.9 | 22.5 | 0.00 | 0.00 | 0.00 | 70 | 1011.7 |
| 20260508083158 | 7 | 225 | 12.9 | 22.5 | 0.00 | 0.00 | 0.00 | 71 | 1011.6 |
| 20260508082648 | 7 | 225 | 12.9 | 24.1 | 0.00 | 0.00 | 0.00 | 71 | 1011.5 |
| 20260508082138 | 7 | 225 | 17.7 | 24.1 | 0.00 | 0.00 | 0.00 | 70 | 1011.6 |
| 20260508081627 | 7 | 248 | 14.5 | 25.7 | 0.00 | 0.00 | 0.00 | 70 | 1011.3 |
| 20260508081118 | 7 | 225 | 17.7 | 25.7 | 0.00 | 0.00 | 0.00 | 69 | 1010.9 |
| 20260508080607 | 7 | 248 | 14.5 | 27.4 | 0.00 | 0.00 | 0.00 | 70 | 1011.0 |
| 20260508075547 | 7 | 225 | 14.5 | 25.7 | 0.00 | 0.00 | 0.00 | 70 | 1010.7 |
| 20260508075036 | 7 | 225 | 17.7 | 25.7 | 0.00 | 0.00 | 0.00 | 70 | 1010.8 |
| 20260508074527 | 7 | 225 | 17.7 | 24.1 | 0.00 | 0.00 | 0.00 | 70 | 1010.7 |
| 20260508073507 | 7 | 225 | 17.7 | 24.1 | 0.00 | 0.00 | 0.00 | 69 | 1010.7 |
| 20260508072956 | 7 | 248 | 17.7 | 24.1 | 0.00 | 0.00 | 0.00 | 68 | 1010.6 |
| 20260508072445 | 7 | 225 | 12.9 | 22.5 | 0.00 | 0.00 | 0.00 | 70 | 1010.4 |
| 20260508071936 | 7 | 225 | 14.5 | 22.5 | 0.00 | 0.00 | 0.00 | 70 | 1010.8 |
| 20260508071425 | 7 | 248 | 12.9 | 20.9 | 0.00 | 0.00 | 0.00 | 69 | 1011.0 |
| 20260508070916 | 7 | 248 | 12.9 | 20.9 | 0.00 | 0.00 | 0.00 | 69 | 1010.8 |
| 20260508070404 | 7 | 248 | 12.9 | 0.0 | 0.00 | 0.00 | 0.00 | 69 | 1010.9 |
| 20260508070203 | 7 | 248 | 12.9 | 0.0 | 0.00 | 0.00 | 0.00 | 69 | 1010.9 |
| 20260508065556 | 7 | 248 | 14.5 | 17.7 | 0.00 | 0.13 | 0.00 | 68 | 1010.7 |
| 20260508065038 | 8 | 270 | 12.9 | 17.7 | 0.00 | 0.13 | 0.00 | 68 | 1010.8 |
| 20260508064527 | 8 | 248 | 11.3 | 14.5 | 0.00 | 0.13 | 0.00 | 69 | 1010.7 |
| 20260508064016 | 7 | 248 | 11.3 | 17.7 | 0.00 | 0.13 | 0.00 | 71 | 1011.0 |
| 20260508063507 | 7 | 270 | 11.3 | 17.7 | 0.00 | 0.13 | 0.00 | 71 | 1010.9 |
| 20260508062956 | 7 | 248 | 11.3 | 14.5 | 0.00 | 0.13 | 0.00 | 71 | 1011.3 |
| 20260508062500 | 7 | 270 | 9.7 | 17.7 | 0.00 | 0.13 | 0.00 | 71 | 1011.0 |
| 20260508061937 | 7 | 248 | 9.7 | 20.9 | 0.00 | 0.13 | 0.00 | 72 | 1011.0 |
| 20260508061427 | 7 | 248 | 11.3 | 20.9 | 0.00 | 0.13 | 0.00 | 72 | 1011.3 |
| 20260508060916 | 7 | 270 | 11.3 | 17.7 | 0.00 | 0.13 | 0.00 | 73 | 1011.3 |
| 20260508060406 | 7 | 270 | 12.9 | 17.7 | 0.00 | 0.13 | 0.00 | 73 | 1011.2 |
| 20260508055856 | 7 | 248 | 11.3 | 20.9 | 0.00 | 0.13 | 0.00 | 72 | 1011.2 |
| 20260508055346 | 7 | 248 | 11.3 | 20.9 | 0.00 | 0.13 | 0.00 | 72 | 1011.0 |
| 20260508054836 | 7 | 248 | 12.9 | 20.9 | 0.00 | 0.13 | 0.00 | 72 | 1010.7 |
| 20260508054325 | 7 | 248 | 14.5 | 20.9 | 0.00 | 0.13 | 0.00 | 73 | 1010.9 |
| 20260508053815 | 7 | 248 | 12.9 | 17.7 | 0.00 | 0.13 | 0.00 | 73 | 1011.0 |
| 20260508053306 | 7 | 248 | 12.9 | 14.5 | 0.00 | 0.13 | 0.00 | 73 | 1011.0 |
| 20260508052756 | 7 | 270 | 11.3 | 14.5 | 0.00 | 0.13 | 0.00 | 74 | 1011.3 |
| 20260508052245 | 7 | 225 | 6.4 | 12.9 | 0.00 | 0.13 | 0.00 | 73 | 1011.1 |
| 20260508051736 | 7 | 248 | 8.0 | 12.9 | 0.00 | 0.13 | 0.00 | 74 | 1011.1 |
| 20260508051225 | 7 | 270 | 6.4 | 11.3 | 0.00 | 0.13 | 0.00 | 74 | 1011.3 |
| 20260508050714 | 7 | 248 | 6.4 | 11.3 | 0.00 | 0.13 | 0.00 | 74 | 1011.7 |
| 20260508050204 | 7 | 270 | 6.4 | 12.9 | 0.00 | 0.13 | 0.00 | 74 | 1011.6 |
| 20260508045654 | 7 | 270 | 8.0 | 12.9 | 0.00 | 0.13 | 0.00 | 76 | 1011.7 |
| 20260508045145 | 7 | 270 | 8.0 | 12.9 | 0.00 | 0.13 | 0.00 | 76 | 1011.5 |
| 20260508044634 | 7 | 270 | 6.4 | 12.9 | 0.00 | 0.13 | 0.00 | 77 | 1011.3 |
| 20260508044124 | 7 | 270 | 8.0 | 11.3 | 0.00 | 0.13 | 0.00 | 76 | 1011.5 |
| 20260508043614 | 7 | 270 | 6.4 | 11.3 | 0.00 | 0.13 | 0.00 | 76 | 1011.5 |
| 20260508043108 | 7 | 270 | 8.0 | 11.3 | 0.00 | 0.13 | 0.00 | 76 | 1011.5 |
| 20260508042553 | 7 | 270 | 6.4 | 9.7 | 0.00 | 0.13 | 0.00 | 77 | 1011.5 |
| 20260508042044 | 7 | 293 | 6.4 | 11.3 | 0.00 | 0.13 | 0.00 | 77 | 1011.7 |
| 20260508041533 | 7 | 293 | 6.4 | 11.3 | 0.00 | 0.13 | 0.00 | 76 | 1011.4 |
| 20260508041024 | 7 | 293 | 6.4 | 11.3 | 0.00 | 0.13 | 0.00 | 76 | 1011.3 |
| 20260508040514 | 7 | 270 | 6.4 | 12.9 | 0.00 | 0.13 | 0.00 | 76 | 1011.5 |
| 20260508040003 | 8 | 270 | 6.4 | 12.9 | 0.00 | 0.13 | 0.00 | 75 | 1011.5 |
| 20260508034943 | 8 | 270 | 8.0 | 11.3 | 0.00 | 0.13 | 0.00 | 75 | 1011.4 |
| 20260508034434 | 8 | 293 | 6.4 | 11.3 | 0.00 | 0.13 | 0.00 | 76 | 1011.2 |
| 20260508033413 | 8 | 270 | 6.4 | 11.3 | 0.00 | 0.13 | 0.00 | 74 | 1011.1 |
| 20260508032903 | 8 | 270 | 6.4 | 12.9 | 0.00 | 0.13 | 0.00 | 72 | 1011.0 |
| 20260508032353 | 9 | 270 | 8.0 | 12.9 | 0.00 | 0.13 | 0.00 | 71 | 1010.8 |
| 20260508031332 | 8 | 270 | 6.4 | 14.5 | 0.00 | 0.13 | 0.00 | 72 | 1010.7 |
| 20260508030823 | 8 | 248 | 9.7 | 14.5 | 0.00 | 0.13 | 0.00 | 74 | 1010.7 |
| 20260508025802 | 9 | 270 | 11.3 | 14.5 | 0.00 | 0.13 | 0.13 | 73 | 1011.0 |
| 20260508025252 | 9 | 248 | 8.0 | 17.7 | 0.00 | 0.13 | 0.13 | 72 | 1010.7 |
| 20260508024743 | 10 | 248 | 12.9 | 17.7 | 0.00 | 0.13 | 0.13 | 71 | 1010.9 |
| 20260508024232 | 10 | 248 | 12.9 | 17.7 | 0.00 | 0.13 | 0.13 | 71 | 1010.8 |
| 20260508023722 | 10 | 248 | 12.9 | 17.7 | 0.00 | 0.13 | 0.13 | 71 | 1010.9 |
| 20260508023212 | 10 | 248 | 12.9 | 17.7 | 0.00 | 0.13 | 0.13 | 69 | 1011.2 |
| 20260508022701 | 10 | 248 | 9.7 | 14.5 | 0.00 | 0.13 | 0.13 | 70 | 1010.9 |
| 20260508022151 | 10 | 270 | 9.7 | 17.7 | 0.00 | 0.13 | 0.13 | 71 | 1011.2 |
| 20260508021641 | 10 | 270 | 9.7 | 17.7 | 0.00 | 0.13 | 0.13 | 71 | 1011.0 |
| 20260508021131 | 10 | 270 | 9.7 | 14.5 | 0.00 | 0.13 | 0.13 | 71 | 1011.2 |
| 20260508020621 | 10 | 270 | 8.0 | 14.5 | 0.00 | 0.13 | 0.13 | 71 | 1011.1 |
| 20260508020110 | 10 | 270 | 11.3 | 14.5 | 0.00 | 0.13 | 0.13 | 71 | 1011.2 |
| 20260508015600 | 10 | 248 | 9.7 | 14.5 | 0.00 | 0.13 | 0.13 | 72 | 1011.1 |
| 20260508014541 | 10 | 248 | 9.7 | 17.7 | 0.00 | 0.13 | 0.13 | 73 | 1010.9 |
| 20260508014031 | 10 | 270 | 11.3 | 17.7 | 0.00 | 0.13 | 0.13 | 73 | 1010.9 |
| 20260508013522 | 10 | 270 | 11.3 | 17.7 | 0.00 | 0.13 | 0.13 | 73 | 1010.7 |
| 20260508013011 | 10 | 270 | 11.3 | 14.5 | 0.00 | 0.13 | 0.13 | 73 | 1010.6 |
| 20260508012500 | 10 | 248 | 11.3 | 14.5 | 0.00 | 0.13 | 0.13 | 73 | 1010.5 |
| 20260508011949 | 10 | 270 | 11.3 | 17.7 | 0.00 | 0.13 | 0.13 | 74 | 1010.8 |
| 20260508011439 | 10 | 248 | 12.9 | 17.7 | 0.00 | 0.13 | 0.13 | 73 | 1010.6 |
| 20260508010419 | 10 | 270 | 8.0 | 12.9 | 0.00 | 0.13 | 0.13 | 77 | 1010.6 |
| 20260508005909 | 10 | 270 | 8.0 | 12.9 | 0.00 | 0.13 | 0.13 | 79 | 1010.6 |
| 20260508005400 | 10 | 293 | 9.7 | 12.9 | 0.00 | 0.13 | 0.13 | 80 | 1010.7 |
| 20260508004849 | 10 | 270 | 8.0 | 12.9 | 0.00 | 0.13 | 0.13 | 82 | 1010.5 |
| 20260508003829 | 9 | 293 | 6.4 | 9.7 | 0.00 | 0.13 | 0.13 | 87 | 1010.6 |
| 20260508003320 | 9 | 293 | 6.4 | 9.7 | 0.00 | 0.13 | 0.13 | 89 | 1010.8 |
| 20260508002810 | 8 | 293 | 6.4 | 9.7 | 0.00 | 0.13 | 0.13 | 89 | 1010.7 |
| 20260508001239 | 10 | 315 | 6.4 | 9.7 | 0.00 | 0.13 | 0.13 | 88 | 1010.3 |